Regional Weather Roundup
Issued by NWS Newport/Morehead, NC

Current Version | Previous Version | Graphics & Text | Print | Product List | Glossary On
Versions: 1 2 3 4 5 6 7 8 9 10 11 12 13 14 15 16 17 18 19 20 21 22 23 24 25 26 27 28 29 30 31 32 33 34 35 36 37 38 39 40 41 42 43 44 45 46 47 48 49 50
000 ASUS42 KMHX 272125 RWRMHX WEATHER ROUNDUP FOR EASTERN NORTH CAROLINA NATIONAL WEATHER SERVICE NEWPORT/MOREHEAD CITY NC 500 PM EDT FRI MAY 27 2016 NOTE: "FAIR" INDICATES FEW OR NO CLOUDS BELOW 12,000 FEET WITH NO SIGNIFICANT WEATHER AND/OR OBSTRUCTIONS TO VISIBILITY NCZ015>017-031-032-045>047-102-103-272200- NORTH COAST CITY SKY/WX TMP DP RH WIND PRES REMARKS EDENTON SUNNY 83 65 53 S9 30.12S ELIZABETH CITY SUNNY 82 61 48 SE13 30.12F KITTY HAWK CLEAR 82 58 43 SE9 30.13F MANTEO NOT AVBL $$ NCZ045>047-081-094-103-104-272200- CENTRAL COAST CITY SKY/WX TMP DP RH WIND PRES REMARKS FRISCO SUNNY 82 65 56 SE7 30.15S $$ NCZ095-097-098-100-101-272200- SOUTHERN COAST CITY SKY/WX TMP DP RH WIND PRES REMARKS BEAUFORT SUNNY 79 63 57 E8G17 30.13F CEDAR ISLAND NOT AVBL JACKSONVILLE SUNNY 80 58 46 SE12 30.13S PINEY ISLAND CLEAR N/A N/A N/A E12 30.13 WILMINGTON SUNNY 79 60 52 E8 30.13S $$ NCZ011>013-027>030-043-044-078>080-089-090>093-098-272200- COASTAL PLAIN CITY SKY/WX TMP DP RH WIND PRES REMARKS AHOSKIE SUNNY 84 63 48 S9 30.09F CLINTON SUNNY 85 63 47 SE5 30.10F ELIZABETHTOWN SUNNY 84 55 36 SE9 30.10S GOLDSBORO MOSUNNY 88 60 39 S8 30.08F GREENVILLE MOSUNNY 86 61 42 SE12 30.12S HAVELOCK SUNNY 82 58 43 SE12 30.14S KENANSVILLE SUNNY 82 51 33 SE6 30.12S KINSTON MOSUNNY 84 61 45 S9 30.12R NEW BERN SUNNY 82 56 40 SE9 30.13S RICHLANDS SUNNY 81 60 48 SE10 30.13S ROCKY MOUNT MOSUNNY 85 62 46 S5 30.09F WASHINGTON SUNNY 83 58 42 SE7 30.11F WHITEVILLE SUNNY 83 58 42 SE8 30.10S $$ AMZ130-135-150-152-154-156-158-170-250-252-270-ANZ085-086-088-633-658-670-272200- MARINE OBSERVATIONS STATION/POSITION TIME TEMP WIND PRES WAVE SWELL AIR SEA DIR/SP/G HT/PER HT/PER (UTC) (F) (DEG/KT/KT) (MB) (FT/S) (FT/S) CHESAPEAKE LIGHT 2100 72 170/ 20/ 21 1020.4 64 E VA BEACH 2050 68 62 170/ 8/ 10 1020.5 2/ 8 2/ 8 DUCK 2100 71 65 130/ 17/ 18 1019.5 2 E DUCK 2011 65 N/A 1/ 8 OREGON INLET 2100 76 79 100/ 6/ 9 1020.9 13E OREGON INLT 2100 73 N/A 2/ 7 2/ 7 HATTERAS CG 2100 78 73 140/ 7/ 10 1020.4 DIAMOND BUOY 2050 76 78 120/ 10/ 12 1020.7 3/ 7 2/ 7 CAPE LOOKOUT 2100 76 110/ 8/ 9 1020.0 BEAUFORT LAB 2100 77 74 120/ 9/ 11 1019.5 30 SE NEW RVR IN 2025 75 N/A 2/ 8 27 SE WRIGHTSVLE 2108 77 75 120/ 10/ 14 1019.5 5 SE WRIGHTSVLE 2108 76 75 90/ 8/ 12 1020.7 225 S CAPE HAT 2050 78 78 80/ 19/ 23 1017.6 5/ 5 2/ 8 41 SE CHARLESTON 2050 77 77 40/ 14/ 17 1018.5 3/ 7 2/ 7 $$

USA.gov is the U.S. government's official web portal to all federal, state and local government web resources and services.